Regional Weather Roundup
Issued by NWS

Home | Current Version | Previous Version | Graphics & Text | Print | Product List | Glossary On
Versions: 1 2 3 4 5 6 7 8 9 10 11 12 13 14 15 16 17 18 19 20 21 22 23 24 25 26 27 28 29 30 31 32 33 34 35 36 37 38 39 40 41 42 43 44 45 46 47 48 49 50
000
ASUS43 KLSX 280259
RWRMO

WEATHER SUMMARY FOR MISSOURI
NATIONAL WEATHER SERVICE SPRINGFIELD MO
900 PM CST SAT DEC 27 2014

NOTE: "FAIR" INDICATES FEW OR NO CLOUDS BELOW 12,000 FEET WITH NO
       SIGNIFICANT WEATHER AND/OR OBSTRUCTIONS TO VISIBILITY.
       CURRENT SKY AND/OR WEATHER CONDITIONS ARE NOT AVAILABLE FOR
       CHILLICOTHE AND FARMINGTON.

MOZ001>031-035>038-043-044-053-054-280400-
...NORTHERN AND WESTERN MISSOURI...

CITY           SKY/WX    TMP DP  RH WIND       PRES   REMARKS
KANSAS CTY INT CLEAR     24  17  74 W5        30.26R WCI  18
KANSAS C DTWN  CLEAR     29  19  66 W3        30.28R
LEE`S SUMMIT   CLEAR     26  19  74 CALM      30.27R
ST JOSEPH      CLEAR     23  19  85 W6        30.28R WCI  16
CHILLICOTHE      N/A     29  21  72 N5        30.27S WCI  24
KIRKSVILLE     CLOUDY    28  23  81 W8        30.23S WCI  20

$$
MOZ066>068-077>081-088>096-101>105-280400-
...SOUTHWEST MISSOURI...

CITY           SKY/WX    TMP DP  RH WIND       PRES   REMARKS
SPRINGFIELD    CLOUDY    31  25  78 NW9       30.23S WCI  23
JOPLIN         CLEAR     27  23  85 CALM      30.28S

$$
MOZ032>034-039>042-045>050-055>058-069>072-280400-
...CENTRAL MISSOURI...

CITY           SKY/WX    TMP DP  RH WIND       PRES   REMARKS
COLUMBIA       CLOUDY    31  25  78 NW12      30.24S WCI  22
JEFFERSON CITY CLOUDY    33  24  69 NW7       30.26S WCI  27
ROLLA          CLOUDY    31  27  85 NW8       30.20S WCI  23
SEDALIA        CLOUDY    30  22  72 NW9       30.27S WCI  22
OSAGE BEACH    CLOUDY    32  25  74 N3        30.25S

$$
MOZ051-052-059>065-280400-
...EAST CENTRAL MISSOURI...

CITY           SKY/WX    TMP DP  RH WIND       PRES   REMARKS
ST LOUIS INTL  CLOUDY    36  32  85 NW8       30.20F WCI  30
SPIRIT OF STL  CLOUDY    35  31  85 NW8       30.20F WCI  29
ST CHARLES     CLOUDY    35  31  85 NW10      30.21S WCI  27

$$
MOZ072>076-082>087-097>100-106>115-280400-
...SOUTH CENTRAL AND SOUTHEAST MISSOURI...

CITY           SKY/WX    TMP DP  RH WIND       PRES   REMARKS
CAPE GIRARDEAU LGT RAIN  41  39  93 N10       30.17R
FARMINGTON     CLOUDY    36  34  93 SE8       30.19F WCI  29
POPLAR BLUFF   CLOUDY    42  38  85 N9        30.16R
WEST PLAINS    CLOUDY    34  31  88 N9        30.19F WCI  27

$$


USA.gov is the U.S. government's official web portal to all federal, state and local government web resources and services.